Regional Weather Roundup
Issued by NWS

Home | Current Version | Previous Version | Graphics & Text | Print | Product List | Glossary On
Versions: 1 2 3 4 5 6 7 8 9 10 11 12 13 14 15 16 17 18 19 20 21 22 23 24 25 26 27 28 29 30 31 32 33 34 35 36 37 38 39 40 41 42 43 44 45 46 47 48 49 50
000
ASUS43 KMPX 291810
RWRMN
WEATHER ROUNDUP FOR MINNESOTA
NATIONAL WEATHER SERVICE TWIN CITIES/CHANHASSEN MN
100 PM CDT SAT APR 29 2017


NOTE: "FAIR" INDICATES FEW OR NO CLOUDS BELOW 12,000 FEET WITH NO
SIGNIFICANT WEATHER AND/OR OBSTRUCTIONS TO VISIBILITY. N/A MEANS
CURRENT SKY AND/OR WEATHER CONDITIONS ARE NOT AVAILABLE.

MNZ060>063-068>070-291900-
   Twin Cities Metro

CITY           SKY/WX    TMP DP  RH WIND       PRES   REMARKS
TWIN CITIES    CLOUDY    52  23  32 E14       30.28R
6HR MIN TEMP:  39; 6HR MAX TEMP:  52;

ST PAUL        MOSUNNY   51  24  34 N14       30.29R
CRYSTAL        MOSUNNY   51  21  30 NE14      30.28R
BLAINE         CLOUDY    52  23  32 NE12G21   30.29R
LAKEVILLE      PTSUNNY   48  27  43 NE13G18   30.26S
EDEN PRAIRIE   CLOUDY    52  23  32 E13G22    30.26R
6HR MIN TEMP:  40; 6HR MAX TEMP:  52;

SOUTH ST PAUL  CLOUDY    51  23  33 E10       30.28R
LAKE ELMO      FAIR      50  28  43 E12       30.29R
$$
MNZ001>005-007-008-013>017-022>024-027-028-291900-
   Northwest Minnesota

CITY           SKY/WX    TMP DP  RH WIND       PRES   REMARKS
BEMIDJI        SUNNY     51  19  28 N3        30.32S
HALLOCK        SUNNY     55  18  22 S8        30.33R
ROSEAU         SUNNY     52  19  28 S3        30.32F
WARROAD        SUNNY     50  30  46 NE8       30.33F
THIEF RVR FALL SUNNY     51  14  22 CALM      30.34R
CROOKSTON      SUNNY     52  19  28 CALM      30.34S
FOSSTON        SUNNY     52  18  25 SW5       30.33S
DETROIT LAKES  SUNNY     52  21  30 CALM      30.32F
MOORHEAD       SUNNY     54  19  26 CALM      30.33F
PARK RAPIDS    SUNNY     53  21  28 VRB7      30.31S
MAHNOMEN       FAIR      51  22  31 NW5       30.32F
$$
MNZ006-009>011-018-025>026-291900-
   North Central Minnesota

CITY           SKY/WX    TMP DP  RH WIND       PRES   REMARKS
BAUDETTE       SUNNY     54  13  19 NE5       30.32S
FLAG ISLAND    SUNNY     43  25  49 SE6       30.33F
INTL FALLS     SUNNY     51  16  24 VRB3      30.32F
6HR MIN TEMP:  26; 6HR MAX TEMP:  52;

WASKISH        PTSUNNY   50  28  43 W9        30.33S
BIG FORK       SUNNY     54  18  24 S5        30.31S
LONGVILLE      SUNNY     52  19  28 N3        30.31S
GRAND RAPIDS   SUNNY     50  18  28 N8        30.33R
CRANE LAKE     SUNNY     48   9  20 N5        30.34F
ORR            SUNNY     50  10  20 W7        30.30R
COOK           SUNNY     48  14  25 E3        30.32R
WALKER         FAIR      49  19  31 E8        30.32S
$$
MNZ012-019>021-037-291900-
   Northeast Minnesota

CITY           SKY/WX    TMP DP  RH WIND       PRES   REMARKS
DULUTH         SUNNY     47  22  37 E8        30.32S
6HR MIN TEMP:  33; 6HR MAX TEMP:  48;

ELY            SUNNY     46   9  21 E3        30.31S
HIBBING        SUNNY     49  19  30 N12       30.31S
EVELETH        SUNNY     50   1  13 NE7       30.32R
DULUTH HARBOR  SUNNY     43  34  70 E8        30.37R
TWO HARBORS    SUNNY     48  27  43 E12G17    30.33R
SILVER BAY     SUNNY     46  25  42 E10       30.33R
GRAND MARAIS     N/A     39  31  72 SW5       30.35F
G MARAIS ARPRT SUNNY     43  19  39 S5        30.30F
$$
MNZ029>031-032-039>041-046>048-054>057-064-291900-
   West Central Minnesota

CITY           SKY/WX    TMP DP  RH WIND       PRES   REMARKS
FERGUS FALLS   SUNNY     50  25  37 W6        30.31F
WHEATON        CLOUDY    52  19  28 NE5       30.33F
MORRIS         PTSUNNY   54  21  28 SE3       30.29F
ALEXANDRIA     MOSUNNY   50  22  33 VRB3      30.32S
ELBOW LAKE     FAIR      51  24  34 N10G17    30.31F
WADENA         SUNNY     52  27  37 CALM      30.32R
GLENWOOD       MOSUNNY   52  23  32 N8        30.31S
APPLETON       MOSUNNY   52  21  30 E6        30.29F
BENSON         CLOUDY    55  12  18 NE9       30.31F
ORTONVILLE     CLOUDY    52  25  35 NE5       30.29F
MADISON        MOSUNNY   54  27  35 NE8G17    30.28F
WILLMAR        FAIR      52  27  37 NE16G22   30.30F
$$
MNZ033>034-036-042>043-049>051-058-059-291900-
   Central Minnesota

CITY           SKY/WX    TMP DP  RH WIND       PRES   REMARKS
ST CLOUD       MOSUNNY   50  24  36 NE12      30.31R
6HR MIN TEMP:  30; 6HR MAX TEMP:  50;

SAUK CENTRE    FAIR      49  25  38 E6        30.32R
PAYNESVILLE    CLOUDY    50  21  31 NE10G16   30.30F
AITKIN         SUNNY     54  10  17 NE8       30.30S
PINE RIVER     SUNNY     52  27  37 N6        30.34S
BRAINERD       CLOUDY    51  20  29 N10       30.32R
STAPLES        SUNNY     52  18  25 N6        30.32S
LONG PRAIRIE   FAIR      48  27  43 N7        30.32S
LITTLE FALLS   PTSUNNY   50  21  32 NE8       30.32R
LITCHFIELD     PTSUNNY   52  27  37 NE12      30.30R
BUFFALO        CLOUDY    51  22  32 NE10G16   30.31R
MAPLE LAKE     PTSUNNY   52  24  33 NE14G20   30.31R
HUTCHINSON     SUNNY     51  28  41 NE13G20   30.29F
$$
MNZ037-044-045-052-053-291900-
   East Central Minnesota

CITY           SKY/WX    TMP DP  RH WIND       PRES   REMARKS
PRINCETON      MOSUNNY   54  25  32 NE12G18   30.31R
MORA           CLOUDY    50  23  34 NE5       30.32R
CAMBRIDGE      MOSUNNY   52  30  43 NE8G17    30.29R
RUSH CITY      CLOUDY    52  23  31 NE6       30.30R
MOOSE LAKE     SUNNY     52  21  30 N5        30.31R
HINCKLEY       FAIR      52  23  32 N8        30.31R
CLOQUET        SUNNY     48  12  23 CALM      30.31R
MCGREGOR       SUNNY     52  23  32 N6        30.32R
$$
MNZ071>073-080-081-089-090-097-098-291900-
   Southwest Minnesota

CITY           SKY/WX    TMP DP  RH WIND       PRES   REMARKS
MONTEVIDEO     MOSUNNY   54  21  28 E8G17     30.28F
GRANITE FALLS  CLOUDY    53  27  36 NE8G24    30.28F
CANBY          CLOUDY    53  22  30 NE13      30.28F
MARSHALL       PTSUNNY   51  24  34 E20       30.25F
REDWOOD FALLS  CLOUDY    52  23  32 E12       30.26F
OLIVIA         CLOUDY    50  27  40 NE13G18   30.26F
PIPESTONE      CLOUDY    50  10  20 E17G25    30.21F
WINDOM         CLOUDY    48  23  37 NE18      30.22F
WORTHINGTON    PTSUNNY   47  26  44 NE18G29   30.20F
JACKSON        CLOUDY    46  28  49 NE22G28   30.20F
TRACY          PTSUNNY   51  27  39 NE15G21   30.25F
SLAYTON        CLOUDY    48  22  35 NE15G25   30.23F
$$
MNZ065>067-074>077-082>085-091>093-291900-
   South Central Minnesota

CITY           SKY/WX    TMP DP  RH WIND       PRES   REMARKS
MANKATO        CLOUDY    48  27  44 NE12      30.25F
NEW ULM        CLOUDY    48  23  37 NE9G17    30.24F
ST JAMES       CLOUDY    48  27  43 NE14      30.25F
FAIRMONT       CLOUDY    47  28  47 NE17      30.22S
GLENCOE        CLOUDY    51  28  41 NE10      30.26F
FARIBAULT      CLOUDY    48  25  40 NE14G21   30.25F
OWATONNA       CLOUDY    48  27  43 NE15G21   30.23F
WASECA         CLOUDY    46  28  49 NE16      30.24F
ALBERT LEA     CLOUDY    45  25  45 NE20G25   30.21F
$$
MNZ078>079-086>088-094>096-291900-
   Southeast Minnesota

CITY           SKY/WX    TMP DP  RH WIND       PRES   REMARKS
ROCHESTER      CLOUDY    44  28  53 E15       30.23S
6HR MIN TEMP:  35; 6HR MAX TEMP:  45;

RED WING       CLOUDY    52  21  30 E13G18    30.25S
STANTON        PTSUNNY   50  26  38 NE16      30.25S
DODGE CENTER   CLOUDY    46  27  46 NE14      30.22S
WINONA         CLOUDY    48  30  49 E10       30.26R
AUSTIN         CLOUDY    45  28  53 NE14      30.20F
PRESTON        CLOUDY    44  27  52 NE14G25   30.21S
$$
ABBREVIATIONS USED IN REMARKS
   TC - TEMPERATURES IN CELSIUS
  WCI - WIND CHILL INDEX
   HX - HEAT INDEX
  VSB - VISIBILITY
$$




USA.gov is the U.S. government's official web portal to all federal, state and local government web resources and services.